TimePDT,TemperatureF,Dew PointF,Humidity,Sea Level PressureIn,VisibilityMPH,Wind Direction,Wind SpeedMPH,Gust SpeedMPH,PrecipitationIn,Events,Conditions,WindDirDegrees,DateUTC
12:00 AM,51.8,51.3,98,29.63,-9999.0,East,9.2,-,0.02,,Unknown,80,2012-11-01 07:00:00
1:00 AM,52.5,52.0,98,29.64,-9999.0,East,8.1,-,N/A,,Unknown,80,2012-11-01 08:00:00
2:00 AM,53,52,95,29.65,,East,10.4,,,,,100,2012-11-01 09:00:00
2:00 AM,52.7,52.0,97,29.65,-9999.0,East,10.4,-,N/A,,Unknown,100,2012-11-01 09:00:00
3:00 AM,52.5,51.8,97,29.66,-9999.0,East,10.4,-,N/A,,Unknown,100,2012-11-01 10:00:00
4:00 AM,52.5,52.0,98,29.67,-9999.0,East,10.4,-,0.01,,Unknown,100,2012-11-01 11:00:00
5:00 AM,52,52,98,29.68,,East,9.2,,,,,100,2012-11-01 12:00:00
5:00 AM,52.2,51.6,98,29.68,-9999.0,East,9.2,18.4,N/A,,Unknown,100,2012-11-01 12:00:00
6:00 AM,52.0,51.4,98,29.70,-9999.0,East,11.5,19.6,N/A,,Unknown,100,2012-11-01 13:00:00
7:00 AM,52.2,51.6,98,29.70,-9999.0,East,12.7,20.7,0.02,,Unknown,100,2012-11-01 14:00:00
8:00 AM,52,51,97,29.73,,ESE,12.7,,,,,110,2012-11-01 15:00:00
8:00 AM,52.0,51.4,98,29.73,-9999.0,ESE,12.7,18.4,N/A,,Unknown,110,2012-11-01 15:00:00
9:00 AM,52.0,51.4,98,29.75,-9999.0,East,15.0,23.0,0.01,,Unknown,100,2012-11-01 16:00:00
10:00 AM,52.0,51.3,97,29.76,-9999.0,East,13.8,20.7,N/A,,Unknown,100,2012-11-01 17:00:00
11:00 AM,53,52,94,29.79,,East,10.4,,,,,90,2012-11-01 18:00:00
11:00 AM,52.5,51.8,97,29.79,-9999.0,East,10.4,-,N/A,,Unknown,90,2012-11-01 18:00:00
12:00 PM,52.7,51.8,97,29.81,-9999.0,ESE,12.7,24.2,N/A,,Unknown,110,2012-11-01 19:00:00
1:00 PM,53.1,52.2,97,29.83,-9999.0,ESE,12.7,-,N/A,,Unknown,110,2012-11-01 20:00:00
2:00 PM,53,52,97,29.83,,ESE,9.2,,,,,110,2012-11-01 21:00:00
2:00 PM,53.4,52.3,96,29.83,-9999.0,ESE,9.2,-,N/A,,Unknown,110,2012-11-01 21:00:00
3:00 PM,53.4,52.3,96,29.83,-9999.0,ESE,9.2,-,N/A,,Unknown,110,2012-11-01 22:00:00
4:00 PM,52.9,51.8,96,29.83,-9999.0,East,12.7,23.0,N/A,,Unknown,100,2012-11-01 23:00:00
5:00 PM,53,52,93,29.84,,ESE,11.5,,,,,110,2012-11-02 00:00:00
5:00 PM,52.7,51.6,96,29.84,-9999.0,ESE,11.5,18.4,N/A,,Unknown,110,2012-11-02 00:00:00
6:00 PM,52.5,51.4,96,29.86,-9999.0,ESE,13.8,20.7,N/A,,Unknown,110,2012-11-02 01:00:00
7:00 PM,52.3,51.3,96,29.87,-9999.0,ESE,18.4,-,N/A,,Unknown,120,2012-11-02 02:00:00
8:00 PM,52,51,96,29.88,,ESE,11.5,,,,,110,2012-11-02 03:00:00
8:00 PM,52.2,51.3,97,29.88,-9999.0,ESE,11.5,20.7,0.02,,Unknown,110,2012-11-02 03:00:00
9:00 PM,52.0,51.1,97,29.88,-9999.0,East,15.0,25.3,0.01,,Unknown,100,2012-11-02 04:00:00
10:00 PM,52.0,51.1,97,29.89,-9999.0,ESE,16.1,25.3,0.01,,Unknown,110,2012-11-02 05:00:00
11:00 PM,52,51,94,29.90,,ESE,15.0,,,,,110,2012-11-02 06:00:00
11:00 PM,51.6,50.7,97,29.90,-9999.0,ESE,15.0,23.0,0.01,,Unknown,110,2012-11-02 06:00:00